KQ4PPF Weather Reports


time (UTC)temp
C
wind
direction
speed
KPH
gust
KPH
rain 1hr
cm
rain 24hr
cm
rain mn
cm
humidity
%
barometer
mb
20260506092327 20 304 0.0 0.0 0.00 0.00 0.00 76 1010.6
20260506091824 20 303 0.0 0.0 0.00 0.00 0.00 76 1010.5
20260506091321 20 303 0.0 0.0 0.00 0.00 0.00 76 1010.3
20260506090819 20 310 0.0 0.0 0.00 0.00 0.00 76 1010.7
20260506090316 20 299 0.0 0.0 0.00 0.00 0.00 76 1010.4
20260506085813 20 311 0.0 0.0 0.00 0.00 0.00 76 1010.6
20260506085309 20 313 0.0 0.0 0.00 0.00 0.00 75 1010.5
20260506084806 20 313 0.0 0.0 0.00 0.00 0.00 75 1010.2
20260506084302 20 314 0.0 0.0 0.00 0.00 0.00 75 1010.4
20260506083759 20 308 1.6 3.2 0.00 0.00 0.00 74 1009.8
20260506083257 20 302 0.0 0.0 0.00 0.00 0.00 74 1010.1
20260506082754 20 301 0.0 0.0 0.00 0.00 0.00 74 1010.0
20260506082249 20 300 0.0 0.0 0.00 0.00 0.00 74 1010.0
20260506081747 20 303 0.0 0.0 0.00 0.00 0.00 74 1009.8
20260506081244 20 301 0.0 0.0 0.00 0.00 0.00 74 1010.2
20260506080742 20 297 0.0 0.0 0.00 0.00 0.00 74 1009.9
20260506080238 20 310 0.0 0.0 0.00 0.00 0.00 73 1009.8
20260506073223 20 299 0.0 0.0 0.00 0.00 0.00 71 1009.9
20260506072719 20 308 0.0 0.0 0.00 0.00 0.00 72 1009.7
20260506072217 20 317 0.0 0.0 0.00 0.00 0.00 71 1009.8
20260506071714 20 307 0.0 0.0 0.00 0.00 0.00 71 1009.9
20260506071212 20 312 0.0 0.0 0.00 0.00 0.00 70 1009.8
20260506070709 20 302 0.0 0.0 0.00 0.00 0.00 70 1010.1
20260506070206 20 308 0.0 0.0 0.00 0.00 0.00 69 1010.2
20260506062143 21 303 0.0 0.0 0.00 0.00 0.00 66 1010.4
20260506061639 21 308 0.0 0.0 0.00 0.00 0.00 65 1010.5
20260506061136 20 306 0.0 0.0 0.00 0.00 0.00 66 1010.7
20260506060635 20 324 0.0 0.0 0.00 0.00 0.00 66 1010.9
20260506060131 20 300 0.0 0.0 0.00 0.00 0.00 66 1011.0
20260506051103 21 305 0.0 0.0 0.00 0.00 0.00 65 1010.9
20260506050601 21 304 0.0 0.0 0.00 0.00 0.00 64 1011.0
20260506045052 20 300 0.0 0.0 0.00 0.00 0.00 64 1011.2
20260506044550 21 304 0.0 0.0 0.00 0.00 0.00 62 1011.0
20260506044046 21 305 0.0 0.0 0.00 0.00 0.00 62 1011.0
20260506043543 21 309 0.0 0.0 0.00 0.00 0.00 62 1011.1
20260506043042 21 309 0.0 0.0 0.00 0.00 0.00 61 1011.1
20260506042540 20 301 0.0 0.0 0.00 0.00 0.00 62 1011.1
20260506042038 20 303 0.0 0.0 0.00 0.00 0.00 63 1011.2
20260506041536 20 297 0.0 0.0 0.00 0.00 0.00 63 1011.1
20260506041033 21 301 0.0 0.0 0.00 0.00 0.00 62 1011.2
20260506040531 21 307 0.0 0.0 0.00 0.00 0.00 63 1011.1
20260506040026 21 308 0.0 0.0 0.00 0.00 0.00 62 1010.8
20260506035524 20 305 0.0 0.0 0.00 0.00 0.00 62 1011.2
20260506035020 20 299 0.0 0.0 0.00 0.00 0.00 63 1011.0
20260506034518 20 298 0.0 0.0 0.00 0.00 0.00 62 1011.2
20260506034015 20 304 0.0 0.0 0.00 0.00 0.00 62 1011.4
20260506033512 20 310 0.0 0.0 0.00 0.00 0.00 63 1011.4
20260506033009 20 311 0.0 0.0 0.00 0.00 0.00 66 1011.3
20260506032506 20 311 0.0 0.0 0.00 0.00 0.00 65 1011.5
20260506032002 20 311 0.0 0.0 0.00 0.00 0.00 66 1011.3
20260506031500 21 311 0.0 0.0 0.00 0.00 0.00 61 1011.1
20260506030957 21 311 0.0 0.0 0.00 0.00 0.00 61 1011.3
20260506030455 21 313 0.0 0.0 0.00 0.00 0.00 60 1011.5
20260506025952 21 300 0.0 0.0 0.00 0.00 0.00 59 1011.5
20260506025449 21 300 0.0 0.0 0.00 0.00 0.00 59 1011.1
20260506024945 21 299 0.0 0.0 0.00 0.00 0.00 59 1011.5
20260506024442 21 296 0.0 0.0 0.00 0.00 0.00 59 1011.8
20260506023938 21 304 0.0 0.0 0.00 0.00 0.00 58 1011.5
20260506023435 21 293 0.0 0.0 0.00 0.00 0.00 59 1011.4
20260506022932 21 299 0.0 0.0 0.00 0.00 0.00 59 1011.2
20260506022429 21 301 0.0 0.0 0.00 0.00 0.00 58 1011.0
20260506021927 21 298 0.0 0.0 0.00 0.00 0.00 58 1011.0
20260506021424 21 301 0.0 0.0 0.00 0.00 0.00 57 1011.0
20260506020921 21 301 0.0 0.0 0.00 0.00 0.00 57 1011.2
20260506020419 21 301 0.0 0.0 0.00 0.00 0.00 57 1011.1
20260506015916 21 300 0.0 0.0 0.00 0.00 0.00 57 1010.9
20260506015414 21 294 0.0 0.0 0.00 0.00 0.00 56 1010.8
20260506014910 21 308 0.0 0.0 0.00 0.00 0.00 56 1011.0
20260506014407 21 310 0.0 0.0 0.00 0.00 0.00 56 1010.6
20260506013904 21 299 0.0 0.0 0.00 0.00 0.00 56 1010.6
20260506013402 21 312 0.0 0.0 0.00 0.00 0.00 57 1010.6
20260506012857 21 306 0.0 0.0 0.00 0.00 0.00 56 1010.8
20260506012354 21 298 0.0 0.0 0.00 0.00 0.00 56 1010.7
20260506011851 21 302 0.0 0.0 0.00 0.00 0.00 56 1010.5
20260506011348 21 304 0.0 0.0 0.00 0.00 0.00 55 1010.8
20260506010846 21 302 0.0 0.0 0.00 0.00 0.00 55 1010.6
20260506010344 21 313 0.0 0.0 0.00 0.00 0.00 56 1010.4
20260506005840 21 304 0.0 0.0 0.00 0.00 0.00 55 1010.5
20260506005337 21 303 0.0 0.0 0.00 0.00 0.00 56 1010.6
20260506004833 21 303 0.0 0.0 0.00 0.00 0.00 56 1010.3
20260506004331 21 302 0.0 0.0 0.00 0.00 0.00 56 1010.5
20260506003827 21 310 0.0 0.0 0.00 0.00 0.00 56 1010.5
20260506003323 21 303 0.0 0.0 0.00 0.00 0.00 57 1010.6
20260506002820 21 301 0.0 0.0 0.00 0.00 0.00 55 1010.8
20260506002316 21 302 0.0 0.0 0.00 0.00 0.00 58 1010.9
20260506001812 20 303 0.0 0.0 0.00 0.00 0.00 60 1010.9
20260506001309 20 304 0.0 0.0 0.00 0.00 0.00 59 1010.8
20260506000806 20 303 0.0 0.0 0.00 0.00 0.00 59 1010.8
20260506000304 20 296 0.0 0.0 0.00 0.00 0.00 60 1010.8
20260505235800 20 301 0.0 0.0 0.00 0.00 0.00 64 1010.5
20260505235258 20 302 0.0 0.0 0.00 0.00 0.00 65 1010.6
20260505234755 20 308 0.0 0.0 0.00 0.00 0.00 60 1010.9
20260505234253 20 308 0.0 0.0 0.00 0.00 0.00 62 1010.9
20260505233749 20 303 0.0 0.0 0.00 0.00 0.00 64 1010.8
20260505233247 20 303 0.0 0.0 0.00 0.00 0.00 65 1010.7
20260505232744 20 299 0.0 0.0 0.00 0.00 0.00 66 1010.7
20260505232241 20 299 0.0 0.0 0.00 0.00 0.00 64 1010.8
20260505231737 21 299 0.0 0.0 0.00 0.00 0.00 64 1010.8
20260505231237 21 300 0.0 0.0 0.00 0.00 0.00 59 1010.8
20260505230735 21 304 0.0 0.0 0.00 0.00 0.00 56 1010.6
20260505230231 21 304 0.0 0.0 0.00 0.00 0.00 57 1010.6
20260505225727 21 297 0.0 0.0 0.00 0.00 0.00 56 1010.5
20260505225225 21 313 0.0 0.0 0.00 0.00 0.00 58 1010.7
20260505224720 21 300 0.0 0.0 0.00 0.00 0.00 57 1011.0
20260505224218 21 299 0.0 0.0 0.00 0.00 0.00 56 1010.9
20260505223715 21 299 0.0 0.0 0.00 0.00 0.00 56 1010.9
20260505223211 21 299 0.0 0.0 0.00 0.00 0.00 56 1010.9
20260505222707 21 301 0.0 0.0 0.00 0.00 0.00 55 1010.8
20260505222203 21 310 0.0 0.0 0.00 0.00 0.00 54 1010.9
20260505221701 21 301 0.0 0.0 0.00 0.00 0.00 54 1010.5
20260505221157 21 309 0.0 0.0 0.00 0.00 0.00 54 1010.9
20260505220654 21 316 0.0 0.0 0.00 0.00 0.00 54 1010.9
20260505220152 21 309 0.0 0.0 0.00 0.00 0.00 53 1010.7
20260505215650 21 304 0.0 0.0 0.00 0.00 0.00 54 1010.6
20260505215147 21 305 0.0 0.0 0.00 0.00 0.00 53 1010.7
20260505214645 21 322 0.0 0.0 0.00 0.00 0.00 55 1010.6
20260505214142 22 313 0.0 0.0 0.00 0.00 0.00 54 1011.1
20260505213640 22 301 0.0 0.0 0.00 0.00 0.00 54 1011.1
20260505213136 22 276 0.0 0.0 0.00 0.00 0.00 53 1011.3
20260505212632 23 312 0.0 0.0 0.00 0.00 0.00 48 1011.2
20260505212130 23 296 0.0 0.0 0.00 0.00 0.00 44 1010.9
20260505211627 23 322 1.6 4.8 0.00 0.00 0.00 45 1011.4
20260505211124 23 303 0.0 0.0 0.00 0.00 0.00 46 1011.3
20260505210621 23 295 0.0 0.0 0.00 0.00 0.00 47 1011.3
20260505210117 24 308 0.0 0.0 0.00 0.00 0.00 45 1011.4
20260505205615 24 296 0.0 0.0 0.00 0.00 0.00 44 1011.1
20260505205113 24 324 0.0 0.0 0.00 0.00 0.00 44 1011.5
20260505204610 24 339 1.6 3.2 0.00 0.00 0.00 43 1011.4
20260505204107 24 313 0.0 1.6 0.00 0.00 0.00 43 1011.4
20260505203603 25 321 0.0 1.6 0.00 0.00 0.00 45 1011.3
20260505203101 25 300 0.0 0.0 0.00 0.00 0.00 46 1011.3
20260505202556 25 297 0.0 0.0 0.00 0.00 0.00 44 1011.4
20260505202053 25 309 0.0 0.0 0.00 0.00 0.00 43 1011.6
20260505201549 25 324 0.0 0.0 0.00 0.00 0.00 43 1011.6
20260505201047 25 2 4.8 8.0 0.00 0.00 0.00 43 1011.8
20260505200545 25 294 0.0 0.0 0.00 0.00 0.00 43 1011.9
20260505200042 25 331 3.2 3.2 0.00 0.00 0.00 41 1011.8
20260505195533 25 316 0.0 0.0 0.00 0.00 0.00 44 1012.2
20260505195030 25 23 1.6 3.2 0.00 0.00 0.00 45 1011.7
20260505194527 25 292 0.0 0.0 0.00 0.00 0.00 45 1011.7
20260505194022 25 309 0.0 0.0 0.00 0.00 0.00 45 1011.9
20260505193520 25 314 0.0 0.0 0.00 0.00 0.00 44 1012.0
20260505193017 25 306 0.0 0.0 0.00 0.00 0.00 46 1012.4
20260505192515 25 332 0.0 0.0 0.00 0.00 0.00 44 1012.5
20260505192012 24 318 0.0 0.0 0.00 0.00 0.00 44 1012.5
20260505191505 25 348 0.0 1.6 0.00 0.00 0.00 42 1012.2
20260505191003 25 301 0.0 1.6 0.00 0.00 0.00 40 1012.4
20260505190457 25 342 0.0 1.6 0.00 0.00 0.00 44 1012.4
20260505185952 25 299 0.0 3.2 0.00 0.00 0.00 44 1012.4
20260505185450 25 288 0.0 0.0 0.00 0.00 0.00 46 1012.5
20260505184946 25 297 0.0 0.0 0.00 0.00 0.00 46 1012.2
20260505184442 25 316 1.6 1.6 0.00 0.00 0.00 44 1012.5
20260505183939 25 301 0.0 0.0 0.00 0.00 0.00 46 1012.7
20260505183436 25 359 4.8 8.0 0.00 0.00 0.00 44 1012.8
20260505182933 25 298 0.0 0.0 0.00 0.00 0.00 44 1013.0
20260505182430 25 305 0.0 0.0 0.00 0.00 0.00 42 1012.9
20260505181926 25 276 0.0 0.0 0.00 0.00 0.00 40 1013.3
20260505181424 25 276 0.0 0.0 0.00 0.00 0.00 42 1013.3
20260505180920 25 279 0.0 0.0 0.00 0.00 0.00 43 1013.4
20260505180416 25 314 0.0 0.0 0.00 0.00 0.00 45 1013.3
20260505175913 24 304 0.0 0.0 0.00 0.00 0.00 44 1013.2
20260505175410 24 356 6.4 9.7 0.00 0.00 0.00 42 1013.0
20260505174906 25 4 1.6 3.2 0.00 0.00 0.00 43 1013.4
20260505174404 25 318 0.0 0.0 0.00 0.00 0.00 42 1013.3
20260505173900 25 324 0.0 0.0 0.00 0.00 0.00 44 1013.5
20260505173356 25 22 1.6 3.2 0.00 0.00 0.00 43 1013.7
20260505172853 25 330 0.0 0.0 0.00 0.00 0.00 45 1013.9
20260505172351 25 330 0.0 0.0 0.00 0.00 0.00 44 1013.7
20260505171850 25 300 0.0 0.0 0.00 0.00 0.00 42 1014.1
20260505171348 24 306 0.0 0.0 0.00 0.00 0.00 46 1013.9
20260505170844 24 302 0.0 0.0 0.00 0.00 0.00 47 1014.1
20260505170341 25 302 0.0 0.0 0.00 0.00 0.00 46 1014.3
20260505165836 24 311 0.0 0.0 0.00 0.00 0.00 50 1014.2
20260505165332 25 298 0.0 0.0 0.00 0.00 0.00 48 1014.4
20260505164828 25 319 0.0 0.0 0.00 0.00 0.00 48 1014.4
20260505164325 24 320 0.0 0.0 0.00 0.00 0.00 50 1014.6
20260505163823 23 317 0.0 0.0 0.00 0.00 0.00 48 1014.4
20260505163322 23 332 0.0 0.0 0.00 0.00 0.00 53 1014.4
20260505162820 23 308 0.0 0.0 0.00 0.00 0.00 52 1014.5
20260505162315 23 317 0.0 0.0 0.00 0.00 0.00 56 1014.3
20260505161813 23 318 0.0 3.2 0.00 0.00 0.00 55 1014.3
20260505161310 22 6 0.0 1.6 0.00 0.00 0.00 56 1014.2
20260505160807 23 338 1.6 3.2 0.00 0.00 0.00 56 1014.3
20260505160305 22 303 0.0 0.0 0.00 0.00 0.00 58 1014.3
20260505153244 22 303 0.0 0.0 0.00 0.00 0.00 58 1014.7
20260505152741 22 299 0.0 0.0 0.00 0.00 0.00 58 1014.7
20260505152237 22 304 0.0 0.0 0.00 0.00 0.00 57 1014.7
20260505151731 22 328 0.0 1.6 0.00 0.00 0.00 58 1014.7
20260505151229 21 337 0.0 0.0 0.00 0.00 0.00 59 1014.8
20260505150727 21 309 0.0 0.0 0.00 0.00 0.00 59 1014.6
20260505150224 21 303 0.0 0.0 0.00 0.00 0.00 60 1014.6
20260505140154 18 312 0.0 0.0 0.00 0.00 0.00 67 1014.7
20260505130118 16 307 0.0 0.0 0.00 0.00 0.00 72 1014.9
20260505124607 15 307 0.0 0.0 0.00 0.00 0.00 76 1014.5
20260505124103 15 307 0.0 0.0 0.00 0.00 0.00 74 1014.6
20260505123559 15 306 0.0 0.0 0.00 0.00 0.00 74 1014.6
20260505123056 15 307 0.0 0.0 0.00 0.00 0.00 74 1014.4
20260505122553 15 307 0.0 0.0 0.00 0.00 0.00 74 1014.2
20260505122050 15 307 0.0 0.0 0.00 0.00 0.00 74 1014.2
20260505121546 16 302 0.0 0.0 0.00 0.00 0.00 75 1014.2
20260505121044 15 302 0.0 0.0 0.00 0.00 0.00 77 1014.3
20260505120540 15 302 0.0 0.0 0.00 0.00 0.00 79 1014.2
20260505120035 15 302 0.0 0.0 0.00 0.00 0.00 80 1014.2
20260505115530 15 302 0.0 0.0 0.00 0.00 0.00 78 1013.9
20260505115023 14 302 0.0 0.0 0.00 0.00 0.00 78 1014.0
20260505114520 12 302 0.0 0.0 0.00 0.00 0.00 87 1013.9
20260505114015 12 302 0.0 0.0 0.00 0.00 0.00 87 1013.7
20260505113512 12 301 0.0 0.0 0.00 0.00 0.00 87 1013.7
20260505113008 11 301 0.0 0.0 0.00 0.00 0.00 87 1013.4
20260505112504 11 301 0.0 0.0 0.00 0.00 0.00 87 1013.4
20260505112002 11 301 0.0 0.0 0.00 0.00 0.00 87 1013.4
20260505111456 11 301 0.0 0.0 0.00 0.00 0.00 87 1013.3
20260505110952 11 301 0.0 0.0 0.00 0.00 0.00 87 1013.3
20260505110449 11 301 0.0 0.0 0.00 0.00 0.00 87 1013.3
20260505101921 11 304 0.0 0.0 0.00 0.00 0.00 86 1013.2
20260505101420 11 301 0.0 0.0 0.00 0.00 0.00 88 1012.9
20260505100916 11 301 0.0 0.0 0.00 0.00 0.00 89 1012.8
20260505100413 11 301 0.0 0.0 0.00 0.00 0.00 89 1012.8
20260505095909 10 301 0.0 0.0 0.00 0.00 0.00 89 1012.8
20260505095406 11 301 0.0 0.0 0.00 0.00 0.00 89 1013.1
20260505094902 11 301 0.0 0.0 0.00 0.00 0.00 88 1013.0
20260505094400 11 301 0.0 0.0 0.00 0.00 0.00 88 1012.7
20260505093855 11 301 0.0 0.0 0.00 0.00 0.00 88 1012.6
20260505093352 11 301 0.0 0.0 0.00 0.00 0.00 88 1013.1
20260505092850 11 301 0.0 0.0 0.00 0.00 0.00 88 1012.8
20260505092348 11 301 0.0 0.0 0.00 0.00 0.00 87 1013.1